{"data":{"norad_id":61540,"epoch":"2026-05-25T05:29:18.186144Z","epoch_age_seconds":45442,"freshness":"FRESH","line1":"1 61540U 24184J   26145.22868271  .00002390  00000+0  24575-4 0  9999","line2":"2 61540  53.1609 218.5824 0000706  77.6499 282.4598 15.69708983 92440","mean_motion":15.69708983,"eccentricity":7.06e-5,"inclination_deg":53.1609,"raan_deg":218.5824,"arg_perigee_deg":77.6499,"mean_anomaly_deg":282.4598,"bstar":2.4575e-5,"rev_number":9244,"period_min":91.736749652021,"perigee_km":359.25396729982,"apogee_km":360.20535407231,"semimajor_km":6737.8666606861,"source":"CELESTRAK","updated_at":"2026-05-25T13:38:19.398649Z"}}